TimeEDT,TemperatureF,Dew PointF,Humidity,Sea Level PressureIn,VisibilityMPH,Wind Direction,Wind SpeedMPH,Gust SpeedMPH,PrecipitationIn,Events,Conditions,WindDirDegrees,DateUTC
12:15 AM,63.5,62.6,97,30.00,5.0,Calm,Calm,-,N/A,,Clear,0,2013-09-04 04:15:00
12:35 AM,62.2,61.3,97,30.00,5.0,Calm,Calm,-,N/A,,Clear,0,2013-09-04 04:35:00
12:55 AM,61.9,61.3,98,30.01,4.0,Calm,Calm,-,N/A,,Clear,0,2013-09-04 04:55:00
1:15 AM,62.4,61.9,98,30.01,4.0,Calm,Calm,-,N/A,,Clear,0,2013-09-04 05:15:00
1:35 AM,62.4,61.7,97,30.01,3.0,Calm,Calm,-,N/A,,Clear,0,2013-09-04 05:35:00
1:55 AM,61.3,61.0,99,30.01,4.0,Calm,Calm,-,N/A,,Clear,0,2013-09-04 05:55:00
2:15 AM,60.8,60.6,99,30.00,3.0,Calm,Calm,-,N/A,,Clear,0,2013-09-04 06:15:00
2:35 AM,60.1,59.9,99,30.01,3.0,Calm,Calm,-,N/A,,Clear,0,2013-09-04 06:35:00
2:55 AM,59.0,59.0,100,30.01,3.0,Calm,Calm,-,N/A,,Clear,0,2013-09-04 06:55:00
3:15 AM,59.5,59.4,99,30.01,2.5,Calm,Calm,-,N/A,,Clear,0,2013-09-04 07:15:00
3:35 AM,59.0,59.0,100,30.01,2.5,Calm,Calm,-,N/A,,Clear,0,2013-09-04 07:35:00
3:55 AM,58.1,58.1,100,30.02,3.0,Calm,Calm,-,N/A,,Clear,0,2013-09-04 07:55:00
4:15 AM,57.4,57.4,100,30.03,2.0,Calm,Calm,-,N/A,,Clear,0,2013-09-04 08:15:00
4:35 AM,56.8,56.8,100,30.03,2.5,Calm,Calm,-,N/A,,Clear,0,2013-09-04 08:35:00
4:55 AM,56.7,56.7,100,30.03,2.5,Calm,Calm,-,N/A,,Clear,0,2013-09-04 08:55:00
5:15 AM,56.3,56.3,100,30.04,2.5,Calm,Calm,-,N/A,,Clear,0,2013-09-04 09:15:00
5:35 AM,56.5,56.5,100,30.04,2.0,Calm,Calm,-,N/A,,Clear,0,2013-09-04 09:35:00
5:55 AM,55.4,55.4,100,30.05,4.0,Calm,Calm,-,N/A,,Clear,0,2013-09-04 09:55:00
6:15 AM,58.6,58.6,100,30.06,5.0,Calm,Calm,-,N/A,,Clear,0,2013-09-04 10:15:00
6:35 AM,57.7,57.6,99,30.07,5.0,Calm,Calm,-,N/A,,Clear,0,2013-09-04 10:35:00
6:55 AM,57.4,57.4,100,30.08,3.0,Calm,Calm,-,N/A,,Clear,0,2013-09-04 10:55:00
7:15 AM,57.4,57.2,99,30.09,2.5,Calm,Calm,-,N/A,,Clear,0,2013-09-04 11:15:00
7:35 AM,57.9,57.9,100,30.09,2.0,Calm,Calm,-,N/A,,Clear,0,2013-09-04 11:35:00
7:55 AM,61.2,61.0,99,30.10,4.0,North,3.5,-,N/A,,Clear,10,2013-09-04 11:55:00
8:15 AM,64.2,60.8,89,30.10,5.0,Calm,Calm,-,N/A,,Clear,0,2013-09-04 12:15:00
8:35 AM,66.9,61.2,82,30.10,4.0,NNE,4.6,-,N/A,,Haze,30,2013-09-04 12:35:00
8:55 AM,68.7,61.5,78,30.11,3.0,NE,4.6,-,N/A,,Haze,40,2013-09-04 12:55:00
9:15 AM,69.8,60.8,73,30.11,3.0,NE,3.5,-,N/A,,Haze,40,2013-09-04 13:15:00
9:35 AM,70.7,60.8,71,30.12,4.0,ENE,4.6,-,N/A,,Haze,70,2013-09-04 13:35:00
9:55 AM,72.0,61.5,70,30.12,5.0,Calm,Calm,-,N/A,,Haze,0,2013-09-04 13:55:00
10:15 AM,72.7,61.2,67,30.13,5.0,Calm,Calm,-,N/A,,Haze,0,2013-09-04 14:15:00
10:35 AM,73.2,60.8,65,30.13,5.0,NE,3.5,-,N/A,,Haze,50,2013-09-04 14:35:00
10:55 AM,73.4,61.0,65,30.13,5.0,ENE,5.8,-,N/A,,Haze,60,2013-09-04 14:55:00
11:15 AM,74.3,61.9,65,30.13,5.0,NE,4.6,-,N/A,,Haze,40,2013-09-04 15:15:00
11:35 AM,74.5,61.9,65,30.13,4.0,NE,5.8,-,N/A,,Haze,40,2013-09-04 15:35:00
11:55 AM,75.7,61.7,62,30.13,5.0,Calm,Calm,-,N/A,,Haze,0,2013-09-04 15:55:00
12:15 PM,76.3,62.1,61,30.12,7.0,East,3.5,-,N/A,,Clear,100,2013-09-04 16:15:00
12:35 PM,76.8,62.8,62,30.12,5.0,Calm,Calm,-,N/A,,Haze,0,2013-09-04 16:35:00
12:55 PM,77.9,63.5,61,30.12,7.0,Calm,Calm,-,N/A,,Clear,0,2013-09-04 16:55:00
1:15 PM,78.1,63.7,61,30.12,5.0,Calm,Calm,-,N/A,,Haze,0,2013-09-04 17:15:00
1:35 PM,78.1,63.5,61,30.11,7.0,Calm,Calm,-,N/A,,Clear,0,2013-09-04 17:35:00
1:55 PM,78.8,63.1,59,30.11,7.0,Calm,Calm,-,N/A,,Clear,0,2013-09-04 17:55:00
2:15 PM,79.2,63.0,57,30.10,10.0,Calm,Calm,-,N/A,,Clear,0,2013-09-04 18:15:00
2:35 PM,80.4,63.5,56,30.10,7.0,Calm,Calm,-,N/A,,Clear,0,2013-09-04 18:35:00
2:55 PM,80.4,63.7,57,30.09,7.0,Calm,Calm,-,N/A,,Clear,0,2013-09-04 18:55:00
3:15 PM,80.6,62.8,54,30.09,7.0,Calm,Calm,-,N/A,,Clear,0,2013-09-04 19:15:00
3:35 PM,82.2,60.4,48,30.08,7.0,Calm,Calm,-,N/A,,Clear,0,2013-09-04 19:35:00
3:55 PM,82.4,60.4,47,30.08,10.0,SSW,3.5,-,N/A,,Clear,200,2013-09-04 19:55:00
4:15 PM,82.6,60.1,46,30.07,7.0,Calm,Calm,-,N/A,,Clear,0,2013-09-04 20:15:00
4:35 PM,82.6,60.8,48,30.07,10.0,South,3.5,-,N/A,,Clear,190,2013-09-04 20:35:00
4:55 PM,82.9,60.6,47,30.07,7.0,Calm,Calm,-,N/A,,Clear,0,2013-09-04 20:55:00
5:15 PM,82.0,61.0,49,30.07,7.0,Calm,Calm,-,N/A,,Clear,0,2013-09-04 21:15:00
5:35 PM,82.4,61.9,50,30.06,7.0,Calm,Calm,-,N/A,,Clear,0,2013-09-04 21:35:00
5:55 PM,82.0,61.2,49,30.06,7.0,Calm,Calm,-,N/A,,Clear,0,2013-09-04 21:55:00
6:15 PM,81.7,61.5,50,30.06,7.0,Calm,Calm,-,N/A,,Clear,0,2013-09-04 22:15:00
6:35 PM,80.2,60.4,51,30.06,7.0,Calm,Calm,-,N/A,,Clear,0,2013-09-04 22:35:00
6:55 PM,75.2,67.1,76,30.06,7.0,Calm,Calm,-,N/A,,Clear,0,2013-09-04 22:55:00
7:15 PM,72.3,67.3,84,30.06,5.0,Calm,Calm,-,N/A,,Haze,0,2013-09-04 23:15:00
7:35 PM,69.8,67.1,91,30.06,7.0,Calm,Calm,-,N/A,,Clear,0,2013-09-04 23:35:00
7:55 PM,67.5,65.7,94,30.07,5.0,Calm,Calm,-,N/A,,Clear,0,2013-09-04 23:55:00
8:15 PM,65.5,64.0,95,30.08,5.0,Calm,Calm,-,N/A,,Clear,0,2013-09-05 00:15:00
8:35 PM,64.4,63.1,96,30.08,5.0,Calm,Calm,-,N/A,,Clear,0,2013-09-05 00:35:00
8:55 PM,63.3,62.2,96,30.08,5.0,Calm,Calm,-,N/A,,Clear,0,2013-09-05 00:55:00
9:15 PM,62.6,61.7,97,30.09,5.0,Calm,Calm,-,N/A,,Clear,0,2013-09-05 01:15:00
9:35 PM,62.6,61.9,97,30.10,5.0,Calm,Calm,-,N/A,,Clear,0,2013-09-05 01:35:00
9:55 PM,61.9,61.3,98,30.10,4.0,Calm,Calm,-,N/A,,Clear,0,2013-09-05 01:55:00
10:15 PM,61.2,60.4,97,30.11,5.0,Calm,Calm,-,N/A,,Clear,0,2013-09-05 02:15:00
10:35 PM,60.6,60.3,99,30.11,5.0,Calm,Calm,-,N/A,,Clear,0,2013-09-05 02:35:00
10:55 PM,60.8,60.3,98,30.11,4.0,Calm,Calm,-,N/A,,Clear,0,2013-09-05 02:55:00
11:15 PM,60.6,60.3,99,30.12,4.0,Calm,Calm,-,N/A,,Clear,0,2013-09-05 03:15:00
11:35 PM,60.4,60.3,99,30.12,4.0,Calm,Calm,-,N/A,,Clear,0,2013-09-05 03:35:00
11:55 PM,61.0,60.8,99,30.12,5.0,Calm,Calm,-,N/A,,Clear,0,2013-09-05 03:55:00